FW93366 Weather Reports


Display with metric or nautical units.
time (UTC)temp
F
wind
direction
speed
MPH
gust
MPH
rain 1hr
in
rain 24hr
in
rain mn
in
humidity
%
barometer
mb
20260903190051 71 232 5.0 16.0 0.00 0.00 0.00 32 1014.2
20260903184546 69 144 3.0 12.0 0.00 0.00 0.00 33 1014.2
20260903183057 69 241 4.0 14.0 0.00 0.00 0.00 34 1014.5
20260903181549 69 163 5.0 11.0 0.00 0.00 0.00 32 1014.7
20260903180049 69 169 6.0 14.0 0.00 0.00 0.00 32 1014.6
20260903174547 68 242 1.0 5.0 0.00 0.00 0.00 33 1014.7
20260903173059 67 0 1.0 7.0 0.00 0.00 0.00 32 1014.8
20260903171553 67 350 0.0 4.0 0.00 0.00 0.00 33 1015.0
20260903170049 67 270 3.0 8.0 0.00 0.00 0.00 31 1015.2
20260903164556 67 57 1.0 3.0 0.00 0.00 0.00 32 1015.3
20260903163047 66 0 0.0 3.0 0.00 0.00 0.00 30 1015.5
20260903161546 65 0 1.0 4.0 0.00 0.00 0.00 30 1015.7
20260903160046 63 0 0.0 3.0 0.00 0.00 0.00 38 1015.7
20260903154554 59 0 0.0 2.0 0.00 0.00 0.00 46 1015.8
20260903153051 54 0 0.0 0.0 0.00 0.00 0.00 55 1016.1
20260903151551 52 0 0.0 0.0 0.00 0.00 0.00 61 1016.3
20260903150106 53 0 0.0 2.0 0.00 0.00 0.00 62 1016.4
20260903144547 53 0 0.0 2.0 0.00 0.00 0.00 55 1016.1
20260903143057 51 0 0.0 0.0 0.00 0.00 0.00 61 1015.9
20260903141549 50 0 0.0 1.0 0.00 0.00 0.00 62 1015.9
20260903140047 48 102 1.0 3.0 0.00 0.00 0.00 63 1015.8
20260903134624 46 0 0.0 1.0 0.00 0.00 0.00 64 1015.8
20260903133101 47 0 0.0 0.0 0.00 0.00 0.00 63 1015.9
20260903131549 48 0 0.0 0.0 0.00 0.00 0.00 61 1015.9
20260903130103 46 0 0.0 0.0 0.00 0.00 0.00 61 1015.9
20260903124557 47 0 0.0 4.0 0.00 0.00 0.00 60 1016.1
20260903123051 49 0 0.0 0.0 0.00 0.00 0.00 55 1016.2
20260903121557 49 0 0.0 0.0 0.00 0.00 0.00 54 1016.4
20260903120059 50 0 0.0 0.0 0.00 0.00 0.00 52 1016.6
20260903114555 50 0 0.0 0.0 0.00 0.00 0.00 53 1016.6
20260903113058 50 0 0.0 0.0 0.00 0.00 0.00 55 1016.7
20260903111556 50 0 0.0 0.0 0.00 0.00 0.00 54 1016.8
20260903110104 50 0 0.0 3.0 0.00 0.00 0.00 54 1017.0
20260903104549 51 0 0.0 0.0 0.00 0.00 0.00 54 1017.1
20260903103058 50 0 0.0 1.0 0.00 0.00 0.00 55 1017.1
20260903101558 50 0 0.0 0.0 0.00 0.00 0.00 58 1016.9
20260903100049 50 0 0.0 1.0 0.00 0.00 0.00 56 1016.9
20260903094557 50 0 0.0 1.0 0.00 0.00 0.00 59 1017.1
20260903093047 50 0 0.0 1.0 0.00 0.00 0.00 59 1017.1
20260903091614 51 0 0.0 0.0 0.00 0.00 0.00 58 1017.2
20260903090054 51 0 0.0 1.0 0.00 0.00 0.00 55 1017.4
20260903084549 50 0 0.0 1.0 0.00 0.00 0.00 55 1017.5
20260903083044 50 0 0.0 1.0 0.00 0.00 0.00 58 1017.3
20260903081556 51 0 0.0 0.0 0.00 0.00 0.00 57 1017.3
20260903080051 51 0 0.0 0.0 0.00 0.00 0.00 56 1017.2
20260903074557 52 0 0.0 0.0 0.00 0.00 0.00 54 1017.3
20260903073055 52 0 0.0 0.0 0.00 0.00 0.00 55 1017.4
20260903071549 54 0 0.0 0.0 0.00 0.00 0.00 52 1017.3
20260903070050 55 0 0.0 0.0 0.00 0.00 0.00 48 1017.3
20260903064558 55 0 0.0 0.0 0.00 0.00 0.00 49 1017.2
20260903063107 55 0 0.0 0.0 0.00 0.00 0.00 51 1017.2
20260903061553 56 0 0.0 1.0 0.00 0.00 0.00 50 1017.4
20260903060049 57 0 0.0 3.0 0.00 0.00 0.00 46 1017.4
20260903054553 55 45 0.0 0.0 0.00 0.00 0.00 52 1017.6
20260903053112 55 0 0.0 0.0 0.00 0.00 0.00 54 1017.8
20260903051552 55 0 0.0 0.0 0.00 0.00 0.00 54 1017.9
20260903044559 55 0 0.0 2.0 0.00 0.00 0.00 52 1018.1
20260903043106 57 0 0.0 5.0 0.00 0.00 0.00 50 1018.0
20260903041556 58 0 0.0 3.0 0.00 0.00 0.00 48 1017.9
20260903040055 58 0 0.0 2.0 0.00 0.00 0.00 47 1017.8
20260903034547 58 0 0.0 1.0 0.00 0.00 0.00 45 1017.5
20260903033049 59 235 2.0 7.0 0.00 0.00 0.00 43 1017.5
20260903031544 60 261 0.0 8.0 0.00 0.00 0.00 44 1017.4
20260903030055 60 277 1.0 4.0 0.00 0.00 0.00 40 1017.3
20260903024551 60 0 0.0 8.0 0.00 0.00 0.00 39 1017.2
20260903023058 61 254 2.0 7.0 0.00 0.00 0.00 39 1017.1
20260903021552 62 279 2.0 11.0 0.00 0.00 0.00 36 1016.8
20260903020059 64 279 3.0 10.0 0.00 0.00 0.00 36 1016.7
20260903014553 66 188 4.0 11.0 0.00 0.00 0.00 34 1016.7
20260903013055 67 178 5.0 14.0 0.00 0.00 0.00 30 1016.4
20260903011551 67 196 7.0 16.0 0.00 0.00 0.00 30 1016.6
20260903010049 68 205 6.0 15.0 0.00 0.00 0.00 30 1016.6
20260903004600 68 207 7.0 18.0 0.00 0.00 0.00 30 1016.6
20260903003058 69 202 7.0 15.0 0.00 0.00 0.00 28 1016.6
20260903001602 69 200 9.0 16.0 0.00 0.00 0.00 27 1016.5
20260903000056 69 200 6.0 17.0 0.00 0.00 0.00 27 1016.5
20260902234601 70 193 7.0 21.0 0.00 0.00 0.00 29 1016.4
20260902233047 70 203 8.0 22.0 0.00 0.00 0.00 28 1016.4
20260902231558 70 165 7.0 17.0 0.00 0.00 0.00 27 1016.3
20260902230051 70 235 9.0 19.0 0.00 0.00 0.00 27 1016.3
20260902224550 70 174 5.0 23.0 0.00 0.00 0.00 27 1016.1
20260902223052 69 184 6.0 19.0 0.00 0.00 0.00 28 1016.3
20260902221553 68 185 6.0 16.0 0.00 0.00 0.00 28 1016.5
20260902220100 68 177 6.0 18.0 0.00 0.00 0.00 29 1016.4
20260902214604 67 148 2.0 16.0 0.00 0.00 0.00 29 1016.6
20260902213053 67 211 7.0 17.0 0.00 0.00 0.00 29 1016.6
20260902211615 67 162 6.0 11.0 0.00 0.00 0.00 30 1016.6
20260902210115 67 180 6.0 19.0 0.00 0.00 0.00 30 1016.6
20260902204559 67 193 5.0 11.0 0.00 0.00 0.00 30 1016.7
20260902203051 67 167 4.0 14.0 0.00 0.00 0.00 30 1016.7
20260902201602 67 196 4.0 17.0 0.00 0.00 0.00 30 1017.0
20260902200049 67 171 3.0 20.0 0.00 0.00 0.00 32 1017.0
20260902194550 67 188 8.0 15.0 0.00 0.00 0.00 31 1017.1
20260902193048 66 178 7.0 19.0 0.00 0.00 0.00 33 1017.3
20260902191548 65 161 3.0 9.0 0.00 0.00 0.00 36 1017.5